This is the latest recevied weather packets stored in our database for station/object GW1477. If no packets are shown the sender has not sent any weather packets the latest 10 day(s).
| Time | Temp. | Humidity | Pressure | Rain* | Wind** | Luminosity | Snow |
|---|---|---|---|---|---|---|---|
| 1777602278 | 3.33° C | 89% | - | 0 mm | - | - | - |
| 1777600495 | 3.89° C | 88% | - | 0 mm | - | - | - |
| 1777598331 | 3.89° C | 89% | - | 0 mm | - | - | - |
| 1777595807 | 4.44° C | 89% | - | 0 mm | - | - | - |
| 1777592921 | 6.11° C | 80% | - | 0 mm | - | - | - |
| 1777590413 | 6.67° C | 81% | - | 0 mm | - | - | - |
| 1777588951 | 7.78° C | 73% | - | 0 mm | - | - | - |
| 1777584619 | 8.89° C | 63% | - | 0 mm | - | - | - |
| 1777583566 | 8.89° C | 65% | - | 0 mm | - | - | - |
| 1777573462 | 10° C | 56% | - | 0 mm | - | - | - |
| 1777573123 | 10.56° C | 58% | - | 0 mm | - | - | - |
| 1777568074 | 10° C | 59% | - | 0 mm | - | - | - |
| 1777564853 | 10° C | 59% | - | 0 mm | - | - | - |
| 1777564461 | 9.44° C | 62% | - | 0 mm | - | - | - |
| 1777555119 | 7.78° C | 81% | - | 0 mm | - | - | - |
| 1777554031 | 7.78° C | 81% | - | 0 mm | - | - | - |
| 1777552218 | 7.22° C | 85% | - | 0 mm | - | - | - |
| 1777547554 | 7.22° C | 85% | - | 0 mm | - | - | - |
| 1777543972 | 7.78° C | 86% | - | 0 mm | - | - | - |
| 1777541793 | 7.78° C | 84% | - | 0 mm | - | - | - |
| 1777541092 | 8.33° C | 86% | - | 0 mm | - | - | - |
| 1777539636 | 8.33° C | 83% | - | 0 mm | - | - | - |
| 1777533490 | 9.44° C | 89% | - | 0 mm | - | - | - |
| 1777533164 | 9.44° C | 89% | - | 0 mm | - | - | - |
| 1777529177 | 8.89° C | 94% | - | 0 mm | - | - | - |
* Rain since midnight (hover to see other rain measurements)
** Current wind speed in m/s (hover to see current wind gust speed)